Bedminster, NJ

10:48 PM EST on February 24, 2017 (GMT -0500)
Somerset

Weather History for KSMQ - April, 2014

Change the Weather History Date:

Wednesday, April 9, 2014

  Actual Average Record
Temperature  
Mean Temperature 46 °F -  
Max Temperature 62 °F 58 °F 87 °F (1991)
Min Temperature 32 °F 33 °F 20 °F (1977)
Degree Days  
Heating Degree Days 18    
Moisture  
Dew Point 29 °F    
Average Humidity 52    
Maximum Humidity 92    
Minimum Humidity 22    
Precipitation  
Precipitation 0.00 in - - ()
Sea Level Pressure  
Sea Level Pressure 29.77 in    
Wind  
Wind Speed 5 mph (NNW)    
Max Wind Speed 17 mph    
Max Gust Speed 30 mph    
Visibility 10 miles    
Events      
Averages and records for this station are not official NWS values.
T = Trace of Precipitation, MM = Missing Value Source: NWS Daily Summary

Daily Weather History Graph

Daily Weather History Graph

Search for Another Location

Airport or City:

Trip Planner

Search our weather history database for the weather conditions in past years. The results will help you decide how hot, cold, wet, or windy it might be!

Date:

Astronomy

Apr. 09, 2014 Rise Set
Actual Time 6:29 AM EDT 7:31 PM EDT
Civil Twilight 6:01 AM EDT 7:59 PM EDT
Nautical Twilight 5:28 AM EDT 8:33 PM EDT
Astronomical Twilight 4:53 AM EDT 9:07 PM EDT
Moon 2:16 PM EDT (4/9) 3:18 AM EDT (4/9)
Length of Visible Light 13h 58m
Length of Day
13h 02m
Waxing Gibbous, 71% of the Moon is Illuminated
Apr 9
Waxing Gibbous
Apr 15
Full
Apr 22
Last Quarter
Apr 29
New
May 6
First Quarter

Hourly Weather History & Observations

Time (EDT) Temp. Windchill Dew Point Humidity Pressure Visibility Wind Dir Wind Speed Gust Speed Precip Events Conditions
12:53 AM 42.1 °F - 33.1 °F 70% 29.66 in 10.0 mi Calm Calm - N/A   Clear
1:53 AM 39.9 °F - 33.1 °F 77% 29.65 in 10.0 mi Calm Calm - N/A   Clear
2:53 AM 37.0 °F - 33.1 °F 86% 29.64 in 10.0 mi Calm Calm - N/A   Clear
3:53 AM 36.0 °F - 32.0 °F 86% 29.64 in 10.0 mi Calm Calm - N/A   Clear
4:53 AM 33.1 °F - 30.9 °F 92% 29.65 in 10.0 mi Calm Calm - N/A   Clear
5:53 AM 32.0 °F - 30.0 °F 92% 29.67 in 10.0 mi Calm Calm - N/A   Clear
6:53 AM 33.1 °F 30.0 °F 30.0 °F 89% 29.70 in 10.0 mi NNW 3.5 mph - N/A   Clear
7:53 AM 39.9 °F - 35.1 °F 83% 29.73 in 10.0 mi Calm Calm - N/A   Clear
8:53 AM 48.9 °F - 35.1 °F 59% 29.74 in 10.0 mi NW 8.1 mph - N/A   Clear
9:53 AM 54.0 °F - 33.1 °F 45% 29.73 in 10.0 mi NNW 9.2 mph - N/A   Clear
10:53 AM 55.9 °F - 34.0 °F 44% 29.74 in 10.0 mi WNW 13.8 mph 21.9 mph N/A   Clear
11:53 AM 59.0 °F - 33.1 °F 38% 29.74 in 10.0 mi NW 12.7 mph 19.6 mph N/A   Partly Cloudy
12:53 PM 59.0 °F - 26.1 °F 28% 29.74 in 10.0 mi North 10.4 mph - N/A   Partly Cloudy
1:53 PM 60.1 °F - 24.1 °F 25% 29.74 in 10.0 mi NW 10.4 mph 23.0 mph N/A   Partly Cloudy
2:53 PM 60.1 °F - 23.0 °F 24% 29.75 in 10.0 mi NNW 16.1 mph 26.5 mph N/A   Partly Cloudy
3:53 PM 61.0 °F - 21.9 °F 22% 29.76 in 10.0 mi NW 17.3 mph 29.9 mph N/A   Clear
4:53 PM 59.0 °F - 24.1 °F 26% 29.77 in 10.0 mi North 17.3 mph 26.5 mph N/A   Partly Cloudy
5:53 PM 59.0 °F - 23.0 °F 25% 29.79 in 10.0 mi North 9.2 mph - N/A   Clear
6:53 PM 57.0 °F - 21.9 °F 26% 29.82 in 10.0 mi NNW 11.5 mph - N/A   Clear
7:53 PM 54.0 °F - 24.1 °F 31% 29.86 in 10.0 mi NNW 9.2 mph 18.4 mph N/A   Clear
8:53 PM 51.1 °F - 24.1 °F 35% 29.92 in 10.0 mi NNW 3.5 mph - N/A   Clear
9:53 PM 48.0 °F - 25.0 °F 41% 29.96 in 10.0 mi NW 5.8 mph - N/A   Clear
10:53 PM 42.1 °F - 28.0 °F 58% 29.99 in 10.0 mi Calm Calm - N/A   Clear
11:53 PM 41.0 °F 39.0 °F 26.1 °F 55% 30.03 in 10.0 mi NW 3.5 mph - N/A   Clear